Location: ?ern� Novina
(50.6762°N, 14.8696°E)
Time: 01:52:06
(UTC+00:00)

Cosmos 2221 Rocket - Pass Details

Date: 03 March 2021
Orbit: 621 x 647 km, 82.5° (Epoch: 13 April)

Event Time Altitude Azimuth Distance (km) Brightness Sun altitude
Rises 18:39:20 0° 354° (N) 2,915 7.3 -18.7°
Reaches altitude 10° 18:41:41 10° 2° (N) 2,004 6.3 -19.1°
Enters shadow 18:45:43 40° 67° (ENE) 920 4.0 -19.7°
